Aérodrome :
LOGIN :

S'inscrire | Disclaimer

   EN    FR    IT 

 










Légende :    VFR   VFR Marginal   IFR   IFR Intensif   IFR Très Intensif
Visi : 
Plafond : 
>= 8 km
>= 3000ft
5 à 8 km
1000 à 3000 ft
1500m à 5 km
500 à 1000 ft
800 à 1500m
200 à 500 ft
< 800m
< 200 ft
Symboles :   Orages  Brouillard  Fortes neiges  Fortes précipitations  Vent > 20 kt
SIGMETs :   Divers  Orages  Givrage  Turbulence  Onde Orograph.  Cendres Volcan.







- Altitude de l'aérodrome : 355 ft
- Code IATA : VBS


LIPO - Montichiari - Brescia

DERNIER METAR :
  • 230150Z 30002KT CAVOK 22/18 Q1013

METARs EXPIRÉS :
  • 230050Z 27003KT CAVOK 23/18 Q1013
  • 222350Z 03002KT CAVOK 24/18 Q1013

TAF TAF LIPO
Valide du 23 à 00h jusqu'au 24 à 00h UTC


222300Z 2300/2324 VRB05KT 9999 SCT060
PROB40
TEMPO 2321/2324 4000 TSRA
Pas de NOTAMs connus pour ce terrain.



MET'MAP, la Météo Aéronautique d'un coup d'oeil ! - Copyright ORBIFLY Décembre 2007 - Disclaimer

ORBIFLY MET'MAP TEAM :

Programmation & Développement : Alexandra Zaïnal
Conception & Développement : Baudouin d'Aumeries
Co-Programmation & Développement : Marc-Olivier Méhu
Soutien technique & logistique : Manuel Goepfert

Contact : metmap@orbifly.com




SOURCES & CREDITS :

   NOAA